Date,TemperatureHighF,TemperatureAvgF,TemperatureLowF,DewpointHighF,DewpointAvgF,DewpointLowF,HumidityHigh,HumidityAvg,HumidityLow,PressureMaxIn,PressureMinIn,WindSpeedMaxMPH,WindSpeedAvgMPH,GustSpeedMaxMPH,PrecipitationSumIn
2013-1-1,31.0,27.0,19.0,-99.9,-99.9,-99.9,0,0,100,0.00,40.00,7,1,0,0.00
2013-1-2,27.0,15.9,7.0,-99.9,-99.9,-99.9,0,0,100,0.00,40.00,5,1,0,0.00
2013-1-3,30.0,20.2,14.0,-99.9,-99.9,-99.9,0,0,100,0.00,40.00,10,3,0,0.00
2013-1-4,28.0,22.7,14.0,-99.9,-99.9,-99.9,0,0,100,0.00,40.00,13,5,0,0.00
2013-1-5,36.0,28.0,21.0,-99.9,-99.9,-99.9,0,0,100,0.00,40.00,7,2,0,0.00
2013-1-6,35.0,30.8,25.0,-99.9,-99.9,-99.9,0,0,100,0.00,40.00,11,4,0,0.00
2013-1-7,37.0,28.2,20.0,-99.9,-99.9,-99.9,0,0,100,0.00,40.00,14,3,0,0.00
2013-1-8,44.0,35.1,25.0,-99.9,-99.9,-99.9,0,0,100,0.00,40.00,8,2,0,0.00
2013-2-7,44.0,38.3,36.0,-99.9,-99.9,-99.9,0,0,100,0.00,40.00,4,2,0,0.00
2013-2-8,38.0,31.8,25.0,-99.9,-99.9,-99.9,0,0,100,0.00,40.00,16,4,0,0.00
2013-2-9,37.0,28.3,21.0,-99.9,-99.9,-99.9,0,0,100,0.00,40.00,7,2,0,0.00
2013-2-10,48.0,38.8,29.0,-99.9,-99.9,-99.9,0,0,100,0.00,40.00,9,3,0,0.00
2013-2-11,49.0,37.8,31.0,-99.9,-99.9,-99.9,0,0,100,0.00,40.00,16,8,0,0.00
2013-2-12,40.0,31.7,28.0,-99.9,-99.9,-99.9,0,0,100,0.00,40.00,12,4,0,0.00
2013-2-13,44.0,32.9,25.0,-99.9,-99.9,-99.9,0,0,100,0.00,40.00,5,1,0,0.00
2013-2-14,44.0,36.9,33.0,-99.9,-99.9,-99.9,0,0,100,0.00,40.00,14,5,0,0.00
2013-2-15,33.0,29.7,24.0,-99.9,-99.9,-99.9,0,0,100,0.00,40.00,10,2,0,0.00
2013-2-16,25.0,20.8,15.0,-99.9,-99.9,-99.9,0,0,100,0.00,40.00,11,2,0,0.00
2013-2-17,30.0,20.0,12.0,-99.9,-99.9,-99.9,0,0,100,0.00,40.00,5,1,0,0.00
2013-2-18,54.0,38.1,23.0,-99.9,-99.9,-99.9,0,0,100,0.00,40.00,14,5,0,0.00
2013-2-19,45.0,28.1,16.0,-99.9,-99.9,-99.9,0,0,100,0.00,40.00,19,8,0,0.00
2013-2-20,23.0,18.3,12.0,-99.9,-99.9,-99.9,0,0,100,0.00,40.00,9,4,0,0.00
2013-2-21,28.0,24.0,21.0,-99.9,-99.9,-99.9,0,0,100,0.00,40.00,11,4,0,0.00
2013-2-22,35.0,29.5,22.0,-99.9,-99.9,-99.9,0,0,100,0.00,40.00,16,4,0,0.00
2013-2-23,31.0,28.2,25.0,-99.9,-99.9,-99.9,0,0,100,0.00,40.00,9,3,0,0.00
2013-2-24,38.0,29.5,22.0,-99.9,-99.9,-99.9,0,0,100,0.00,40.00,9,2,0,0.00
2013-2-25,43.0,32.1,22.0,-99.9,-99.9,-99.9,0,0,100,0.00,40.00,9,2,0,0.00
2013-2-26,35.0,32.4,30.0,-99.9,-99.9,-99.9,0,0,100,0.00,40.00,14,5,0,0.00
2013-2-27,35.0,32.9,31.0,-99.9,-99.9,-99.9,0,0,100,0.00,40.00,10,4,0,0.00
2013-2-28,37.0,33.7,31.0,-99.9,-99.9,-99.9,0,0,100,0.00,40.00,7,3,0,0.00
2013-3-1,33.0,30.3,26.0,-99.9,-99.9,-99.9,0,0,100,0.00,40.00,11,4,0,0.00
2013-3-2,33.0,27.4,25.0,-99.9,-99.9,-99.9,0,0,100,0.00,40.00,16,5,0,0.00
2013-3-3,32.0,27.2,23.0,-99.9,-99.9,-99.9,0,0,100,0.00,40.00,8,3,0,0.00
2013-3-4,39.0,28.9,21.0,-99.9,-99.9,-99.9,0,0,100,0.00,40.00,5,1,0,0.00
2013-3-5,35.0,30.4,27.0,-99.9,-99.9,-99.9,0,0,100,0.00,40.00,13,5,0,0.00
2013-3-6,35.0,31.0,26.0,-99.9,-99.9,-99.9,0,0,100,0.00,40.00,17,4,0,0.00
2013-3-7,41.0,34.4,31.0,-99.9,-99.9,-99.9,0,0,100,0.00,40.00,8,2,0,0.00
2013-3-8,41.0,29.5,22.0,-99.9,-99.9,-99.9,0,0,100,0.00,40.00,5,1,0,0.00
2013-3-9,49.0,41.7,38.0,-99.9,-99.9,-99.9,0,0,100,0.00,40.00,10,3,0,0.00
2013-3-10,62.0,54.0,42.0,-99.9,-99.9,-99.9,0,0,100,0.00,40.00,13,4,0,0.00
2013-3-11,56.0,43.9,35.0,-99.9,-99.9,-99.9,0,0,100,0.00,40.00,15,5,0,0.00
2013-3-12,37.0,33.0,30.0,-99.9,-99.9,-99.9,0,0,100,0.00,40.00,13,5,0,0.00
2013-3-13,32.0,27.8,25.0,-99.9,-99.9,-99.9,0,0,100,0.00,40.00,14,5,0,0.00
2013-3-14,43.0,31.5,22.0,-99.9,-99.9,-99.9,0,0,100,0.00,40.00,9,2,0,0.00
2013-3-15,43.0,34.5,30.0,-99.9,-99.9,-99.9,0,0,100,0.00,40.00,4,1,0,0.00
2013-3-16,42.0,37.7,32.0,-99.9,-99.9,-99.9,0,0,100,0.00,40.00,8,3,0,0.00
2013-3-17,39.0,31.1,28.0,-99.9,-99.9,-99.9,0,0,100,0.00,40.00,15,5,0,0.00
2013-3-18,37.0,31.8,28.0,-99.9,-99.9,-99.9,0,0,100,0.00,40.00,13,4,0,0.00
2013-3-19,36.0,28.8,22.0,-99.9,-99.9,-99.9,0,0,100,0.00,40.00,19,8,0,0.00
2013-3-20,31.0,26.0,21.0,-99.9,-99.9,-99.9,0,0,100,0.00,40.00,13,6,0,0.00
2013-3-21,36.0,23.8,15.0,-99.9,-99.9,-99.9,0,0,100,0.00,40.00,10,3,0,0.00
2013-3-22,38.0,26.3,20.0,-99.9,-99.9,-99.9,0,0,100,0.00,40.00,6,1,0,0.00
2013-3-23,45.0,34.1,26.0,-99.9,-99.9,-99.9,0,0,100,0.00,40.00,7,2,0,0.00
2013-3-24,37.0,31.6,28.0,-99.9,-99.9,-99.9,0,0,100,0.00,40.00,22,7,0,0.00
2013-3-25,33.0,28.5,28.0,-99.9,-99.9,-99.9,0,0,100,0.00,40.00,13,6,0,0.00
2013-3-26,43.0,34.8,31.0,-99.9,-99.9,-99.9,0,0,100,0.00,40.00,8,3,0,0.00
2013-3-27,43.0,35.2,29.0,-99.9,-99.9,-99.9,0,0,100,0.00,40.00,8,3,0,0.00
2013-3-28,50.0,35.9,26.0,-99.9,-99.9,-99.9,0,0,100,0.00,40.00,7,2,0,0.00
2013-3-29,54.0,41.0,29.0,-99.9,-99.9,-99.9,0,0,100,0.00,40.00,8,1,0,0.00
2013-3-30,59.0,43.8,28.0,-99.9,-99.9,-99.9,0,0,100,0.00,40.00,8,1,0,0.00
2013-3-31,61.0,49.8,41.0,-99.9,-99.9,-99.9,0,0,100,0.00,40.00,11,3,0,0.00
2013-4-1,41.0,35.9,29.0,-99.9,-99.9,-99.9,0,0,100,0.00,40.00,15,4,0,0.00
2013-4-2,44.0,34.9,24.0,-99.9,-99.9,-99.9,0,0,100,0.00,40.00,10,3,0,0.00
2013-4-3,48.0,35.3,22.0,-99.9,-99.9,-99.9,0,0,100,0.00,40.00,10,2,0,0.00
2013-4-4,60.0,42.7,29.0,-99.9,-99.9,-99.9,0,0,100,0.00,40.00,8,1,0,0.00
2013-4-5,55.0,44.7,38.0,-99.9,-99.9,-99.9,0,0,100,0.00,40.00,11,3,0,0.00
2013-4-6,66.0,49.8,36.0,-99.9,-99.9,-99.9,0,0,100,0.00,40.00,13,5,0,0.00
2013-4-7,68.0,58.7,50.0,-99.9,-99.9,-99.9,0,0,100,0.00,40.00,12,5,0,0.00
2013-4-8,74.0,57.4,44.0,-99.9,-99.9,-99.9,0,0,100,0.00,40.00,17,4,0,0.00
2013-4-9,81.0,65.0,51.0,-99.9,-99.9,-99.9,0,0,100,0.00,40.00,20,4,0,0.00
2013-4-10,73.0,59.3,47.0,-99.9,-99.9,-99.9,0,0,100,0.00,40.00,10,3,0,0.00
2013-4-11,47.0,44.4,41.0,-99.9,-99.9,-99.9,0,0,100,0.00,40.00,14,5,0,0.00
2013-4-12,43.0,40.1,36.0,-99.9,-99.9,-99.9,0,0,100,0.00,40.00,16,4,0,0.00
2013-4-13,44.0,39.4,36.0,-99.9,-99.9,-99.9,0,0,100,0.00,40.00,14,4,0,0.00
2013-4-14,67.0,50.4,39.0,-99.9,-99.9,-99.9,0,0,100,0.00,40.00,12,3,0,0.00
2013-4-15,66.0,58.9,52.0,-99.9,-99.9,-99.9,0,0,100,0.00,40.00,13,3,0,0.00
2013-4-16,61.0,51.7,46.0,-99.9,-99.9,-99.9,0,0,100,0.00,40.00,10,3,0,0.00
2013-4-17,58.0,50.7,46.0,-99.9,-99.9,-99.9,0,0,100,0.00,40.00,13,5,0,0.00
2013-4-18,74.0,59.2,47.0,-99.9,-99.9,-99.9,0,0,100,0.00,40.00,16,4,0,0.00
2013-4-19,60.0,41.0,36.0,-99.9,-99.9,-99.9,0,0,100,0.00,40.00,16,7,0,0.00
2013-4-20,46.0,38.0,33.0,-99.9,-99.9,-99.9,0,0,100,0.00,40.00,16,4,0,0.00
2013-4-21,53.0,40.4,28.0,-99.9,-99.9,-99.9,0,0,100,0.00,40.00,12,3,0,0.00
2013-4-22,69.0,50.3,33.0,-99.9,-99.9,-99.9,0,0,100,0.00,40.00,10,2,0,0.00
2013-4-29,59.0,57.6,56.0,-99.9,-99.9,-99.9,0,0,100,0.00,40.00,4,2,0,0.00
2013-4-30,71.0,63.9,56.0,-99.9,-99.9,-99.9,0,0,100,0.00,40.00,4,2,0,0.00
2013-5-1,76.0,66.0,56.0,-99.9,-99.9,-99.9,0,0,100,0.00,40.00,2,1,0,0.00
2013-5-2,67.0,63.3,59.0,-99.9,-99.9,-99.9,0,0,100,0.00,40.00,3,1,0,0.00
2013-5-3,61.0,61.0,61.0,-99.9,-99.9,-99.9,0,0,100,0.00,40.00,0,0,0,0.00
2013-5-4,66.0,64.2,63.0,-99.9,-99.9,-99.9,0,0,100,0.00,40.00,4,2,0,0.00
2013-5-5,70.0,64.0,55.0,-99.9,-99.9,-99.9,0,0,100,0.00,40.00,10,3,0,0.00
2013-5-6,66.0,60.6,56.0,-99.9,-99.9,-99.9,0,0,100,0.00,40.00,4,2,0,0.00
2013-5-7,72.0,64.7,59.0,-99.9,-99.9,-99.9,0,0,100,0.00,40.00,2,0,0,0.00
2013-5-8,66.0,64.8,64.0,-99.9,-99.9,-99.9,0,0,100,0.00,40.00,2,0,0,0.00
2013-5-9,81.0,69.2,55.0,-99.9,-99.9,-99.9,0,0,100,0.00,40.00,5,0,0,0.00
2013-5-10,69.0,60.3,49.0,-99.9,-99.9,-99.9,0,0,100,0.00,40.00,7,2,0,0.00
2013-5-11,59.0,47.9,43.0,-99.9,-99.9,-99.9,0,0,100,0.00,40.00,11,1,0,0.00
2013-5-12,53.0,44.5,37.0,-99.9,-99.9,-99.9,0,0,100,0.00,40.00,7,1,0,0.00
2013-5-13,61.0,49.5,37.0,-99.9,-99.9,-99.9,0,0,100,0.00,40.00,7,1,0,0.00
2013-5-14,83.0,66.5,49.0,-99.9,-99.9,-99.9,0,0,100,0.00,40.00,10,2,0,0.00
2013-5-15,85.0,76.4,69.0,-99.9,-99.9,-99.9,0,0,100,0.00,40.00,8,2,0,0.00
2013-5-16,82.0,65.6,59.0,-99.9,-99.9,-99.9,0,0,100,0.00,40.00,6,1,0,0.00
2013-5-17,68.0,60.7,56.0,-99.9,-99.9,-99.9,0,0,100,0.00,40.00,8,1,0,0.00
2013-5-18,81.0,67.9,56.0,-99.9,-99.9,-99.9,0,0,100,0.00,40.00,5,1,0,0.00
2013-5-19,86.0,73.7,59.0,-99.9,-99.9,-99.9,0,0,100,0.00,40.00,5,1,0,0.00
2013-5-20,88.0,77.5,68.0,-99.9,-99.9,-99.9,0,0,100,0.00,40.00,14,1,0,0.00
2013-5-21,86.0,75.7,66.0,-99.9,-99.9,-99.9,0,0,100,0.00,40.00,12,2,0,0.00
2013-5-22,77.0,69.9,63.0,-99.9,-99.9,-99.9,0,0,100,0.00,40.00,7,1,0,0.00
2013-5-23,63.0,57.9,49.0,-99.9,-99.9,-99.9,0,0,100,0.00,40.00,10,2,0,0.00
2013-5-24,63.0,53.0,42.0,-99.9,-99.9,-99.9,0,0,100,0.00,40.00,8,3,0,0.00
2013-5-25,66.0,55.8,45.0,-99.9,-99.9,-99.9,0,0,100,0.00,40.00,4,0,0,0.00
2013-5-26,73.0,60.7,46.0,-99.9,-99.9,-99.9,0,0,100,0.00,40.00,11,1,0,0.00
2013-5-27,62.0,57.7,50.0,-99.9,-99.9,-99.9,0,0,100,0.00,40.00,9,2,0,0.00
2013-5-28,80.0,70.6,62.0,-99.9,-99.9,-99.9,0,0,100,0.00,40.00,12,2,0,0.00
2013-5-29,85.0,76.4,70.0,-99.9,-99.9,-99.9,0,0,100,0.00,40.00,9,2,0,0.00
2013-5-30,88.0,76.9,67.0,-99.9,-99.9,-99.9,0,0,100,0.00,40.00,14,2,0,0.00
2013-5-31,75.0,72.1,66.0,-99.9,-99.9,-99.9,0,0,100,0.00,40.00,8,1,0,0.00
2013-6-1,74.0,69.3,64.0,-99.9,-99.9,-99.9,0,0,100,0.00,40.00,15,1,0,0.00
2013-6-2,70.0,63.0,54.0,-99.9,-99.9,-99.9,0,0,100,0.00,40.00,9,1,0,0.00
2013-6-3,67.0,58.0,46.0,-99.9,-99.9,-99.9,0,0,100,0.00,40.00,7,2,0,0.00
2013-6-4,75.0,62.8,48.0,-99.9,-99.9,-99.9,0,0,100,0.00,40.00,8,1,0,0.00
2013-6-5,78.0,67.0,54.0,-99.9,-99.9,-99.9,0,0,100,0.00,40.00,9,3,0,0.00
2013-6-6,76.0,65.2,58.0,-99.9,-99.9,-99.9,0,0,100,0.00,40.00,9,2,0,0.00
2013-6-7,73.0,64.3,57.0,-99.9,-99.9,-99.9,0,0,100,0.00,40.00,9,2,0,0.00
2013-6-8,80.0,66.4,52.0,-99.9,-99.9,-99.9,0,0,100,0.00,40.00,3,0,0,0.00
2013-6-9,84.0,72.8,64.0,-99.9,-99.9,-99.9,0,0,100,0.00,40.00,4,0,0,0.00
2013-6-10,80.0,70.6,65.0,-99.9,-99.9,-99.9,0,0,100,0.00,40.00,5,1,0,0.00
2013-6-11,85.0,71.6,61.0,-99.9,-99.9,-99.9,0,0,100,0.00,40.00,5,0,0,0.00
2013-6-12,88.0,76.5,65.0,-99.9,-99.9,-99.9,0,0,100,0.00,40.00,28,1,0,0.00
2013-6-13,79.0,69.0,62.0,-99.9,-99.9,-99.9,0,0,100,0.00,40.00,14,3,0,0.00
2013-6-14,79.0,67.5,57.0,-99.9,-99.9,-99.9,0,0,100,0.00,40.00,7,2,0,0.00
2013-6-15,79.0,68.1,59.0,-99.9,-99.9,-99.9,0,0,100,0.00,40.00,6,0,0,0.00
2013-6-16,81.0,72.2,66.0,-99.9,-99.9,-99.9,0,0,100,0.00,40.00,5,1,0,0.00
2013-6-17,85.0,76.4,67.0,-99.9,-99.9,-99.9,0,0,100,0.00,40.00,4,0,0,0.00
2013-6-18,78.0,72.2,65.0,-99.9,-99.9,-99.9,0,0,100,0.00,40.00,9,2,0,0.00
2013-6-19,79.0,68.2,56.0,-99.9,-99.9,-99.9,0,0,100,0.00,40.00,6,1,0,0.00
2013-6-20,84.0,69.3,58.0,-99.9,-99.9,-99.9,0,0,100,0.00,40.00,4,0,0,0.00
2013-6-22,90.0,80.5,71.0,-99.9,-99.9,-99.9,0,0,100,0.00,40.00,4,0,0,0.00
2013-6-23,89.0,76.6,67.0,-99.9,-99.9,-99.9,0,0,100,0.00,40.00,9,1,0,0.00
2013-6-24,87.0,77.0,67.0,-99.9,-99.9,-99.9,0,0,100,0.00,40.00,4,0,0,0.00
2013-6-25,90.0,78.6,67.0,-99.9,-99.9,-99.9,0,0,100,0.00,40.00,8,1,0,0.00
2013-6-26,83.0,73.0,67.0,-99.9,-99.9,-99.9,0,0,100,0.00,40.00,7,0,0,0.00
2013-6-27,86.0,76.2,70.0,-99.9,-99.9,-99.9,0,0,100,0.00,40.00,8,1,0,0.00
2013-6-28,82.0,72.9,65.0,-99.9,-99.9,-99.9,0,0,100,0.00,40.00,5,1,0,0.00
2013-6-29,77.0,67.3,62.0,-99.9,-99.9,-99.9,0,0,100,0.00,40.00,6,0,0,0.00
2013-6-30,72.0,66.3,62.0,-99.9,-99.9,-99.9,0,0,100,0.00,40.00,11,3,0,0.00
2013-7-1,71.0,66.5,62.0,-99.9,-99.9,-99.9,0,0,100,0.00,40.00,16,3,0,0.00
2013-7-2,76.0,66.0,59.0,-99.9,-99.9,-99.9,0,0,100,0.00,40.00,6,3,0,0.00
2013-7-3,83.0,72.8,63.0,-99.9,-99.9,-99.9,0,0,100,0.00,40.00,10,1,0,0.00
2013-7-4,80.0,72.3,64.0,-99.9,-99.9,-99.9,0,0,100,0.00,40.00,5,0,0,0.00
2013-7-5,85.0,74.9,68.0,-99.9,-99.9,-99.9,0,0,100,0.00,40.00,4,0,0,0.00
2013-7-6,78.0,72.4,69.0,-99.9,-99.9,-99.9,0,0,100,0.00,40.00,2,0,0,0.00
2013-7-7,82.0,74.0,66.0,-99.9,-99.9,-99.9,0,0,100,0.00,40.00,9,1,0,0.00
2013-7-8,82.0,75.2,69.0,-99.9,-99.9,-99.9,0,0,100,0.00,40.00,5,0,0,0.00
2013-7-9,90.0,80.4,73.0,-99.9,-99.9,-99.9,0,0,100,0.00,40.00,5,0,0,0.00
2013-7-10,85.0,76.1,66.0,-99.9,-99.9,-99.9,0,0,100,0.00,40.00,9,1,0,0.00
2013-7-11,79.0,68.9,59.0,-99.9,-99.9,-99.9,0,0,100,0.00,40.00,8,2,0,0.00
2013-7-12,81.0,70.2,60.0,-99.9,-99.9,-99.9,0,0,100,0.00,40.00,7,1,0,0.00
2013-7-13,85.0,73.3,59.0,-99.9,-99.9,-99.9,0,0,100,0.00,40.00,9,2,0,0.00
2013-7-14,89.0,78.3,66.0,-99.9,-99.9,-99.9,0,0,100,0.00,40.00,7,1,0,0.00
2013-7-15,92.0,81.2,73.0,-99.9,-99.9,-99.9,0,0,100,0.00,40.00,6,1,0,0.00
2013-7-16,92.0,82.3,73.0,-99.9,-99.9,-99.9,0,0,100,0.00,40.00,4,0,0,0.00
2013-7-17,93.0,82.7,74.0,-99.9,-99.9,-99.9,0,0,100,0.00,40.00,5,0,0,0.00
2013-7-18,94.0,83.5,74.0,-99.9,-99.9,-99.9,0,0,100,0.00,40.00,7,0,0,0.00
2013-7-19,92.0,83.3,75.0,-99.9,-99.9,-99.9,0,0,100,0.00,40.00,13,1,0,0.00
2013-7-20,89.0,79.6,71.0,-99.9,-99.9,-99.9,0,0,100,0.00,40.00,8,0,0,0.00
2013-7-21,87.0,77.7,68.0,-99.9,-99.9,-99.9,0,0,100,0.00,40.00,5,1,0,0.00
2013-7-22,82.0,73.9,67.0,-99.9,-99.9,-99.9,0,0,100,0.00,40.00,5,0,0,0.00
2013-7-23,84.0,73.4,62.0,-99.9,-99.9,-99.9,0,0,100,0.00,40.00,15,1,0,0.00
2013-7-24,74.0,63.9,53.0,-99.9,-99.9,-99.9,0,0,100,0.00,40.00,12,2,0,0.00
2013-7-25,76.0,66.5,55.0,-99.9,-99.9,-99.9,0,0,100,0.00,40.00,6,0,0,0.00
2013-7-26,82.0,69.4,58.0,-99.9,-99.9,-99.9,0,0,100,0.00,40.00,4,0,0,0.00
2013-7-27,78.0,69.2,58.0,-99.9,-99.9,-99.9,0,0,100,0.00,40.00,8,1,0,0.00
2013-7-28,71.0,61.6,52.0,-99.9,-99.9,-99.9,0,0,100,0.00,40.00,5,1,0,0.00
2013-7-29,75.0,64.2,54.0,-99.9,-99.9,-99.9,0,0,100,0.00,40.00,4,0,0,0.00
2013-7-30,79.0,67.6,56.0,-99.9,-99.9,-99.9,0,0,100,0.00,40.00,3,0,0,0.00
2013-7-31,71.0,68.6,66.0,-99.9,-99.9,-99.9,0,0,100,0.00,40.00,4,0,0,0.00
2013-8-1,82.0,70.0,62.0,-99.9,-99.9,-99.9,0,0,100,0.00,40.00,4,0,0,0.00
2013-8-2,72.0,64.0,59.0,-99.9,-99.9,-99.9,0,0,100,0.00,40.00,5,0,0,0.00
2013-8-3,80.0,70.4,63.0,-99.9,-99.9,-99.9,0,0,100,0.00,40.00,10,1,0,0.00
2013-8-4,76.0,66.6,55.0,-99.9,-99.9,-99.9,0,0,100,0.00,40.00,8,1,0,0.00
2013-8-5,79.0,70.4,62.0,-99.9,-99.9,-99.9,0,0,100,0.00,40.00,4,0,0,0.00
2013-8-6,79.0,72.4,63.0,-99.9,-99.9,-99.9,0,0,100,0.00,40.00,4,0,0,0.00
2013-8-7,83.0,74.3,70.0,-99.9,-99.9,-99.9,0,0,100,0.00,40.00,2,0,0,0.00
2013-8-8,76.0,72.4,68.0,-99.9,-99.9,-99.9,0,0,100,0.00,40.00,5,1,0,0.00
2013-8-9,71.0,71.0,71.0,-99.9,-99.9,-99.9,0,0,100,0.00,40.00,0,0,0,0.00
2013-8-10,82.0,75.5,70.0,-99.9,-99.9,-99.9,0,0,100,0.00,40.00,3,1,0,0.00
2013-8-11,83.0,71.8,62.0,-99.9,-99.9,-99.9,0,0,100,0.00,40.00,6,0,0,0.00
2013-8-12,85.0,73.5,64.0,-99.9,-99.9,-99.9,0,0,100,0.00,40.00,3,0,0,0.00
2013-8-13,72.0,64.5,57.0,-99.9,-99.9,-99.9,0,0,100,0.00,40.00,8,2,0,0.00
2013-8-16,77.0,64.4,58.0,-99.9,-99.9,-99.9,0,0,100,0.00,40.00,6,1,0,0.00
2013-8-17,80.0,66.9,56.0,-99.9,-99.9,-99.9,0,0,100,0.00,40.00,9,1,0,0.00
2013-8-18,83.0,68.0,58.0,-99.9,-99.9,-99.9,0,0,100,0.00,40.00,6,1,0,0.00
2013-8-19,86.0,65.8,59.0,-99.9,-99.9,-99.9,0,0,100,0.00,40.00,7,0,0,0.00
2013-8-20,86.0,73.3,62.0,-99.9,-99.9,-99.9,0,0,100,0.00,40.00,4,0,0,0.00
2013-8-21,86.0,74.9,67.0,-99.9,-99.9,-99.9,0,0,100,0.00,40.00,3,0,0,0.00
2013-8-22,77.0,71.9,69.0,-99.9,-99.9,-99.9,0,0,100,0.00,40.00,3,0,0,0.00
2013-8-23,82.0,72.8,65.0,-99.9,-99.9,-99.9,0,0,100,0.00,40.00,5,1,0,0.00
2013-8-24,82.0,69.2,56.0,-99.9,-99.9,-99.9,0,0,100,0.00,40.00,9,1,0,0.00
2013-8-25,88.0,72.6,59.0,-99.9,-99.9,-99.9,0,0,100,0.00,40.00,2,0,0,0.00
2013-8-26,89.0,76.2,64.0,-99.9,-99.9,-99.9,0,0,100,0.00,40.00,3,0,0,0.00
2013-8-27,89.0,76.4,71.0,-99.9,-99.9,-99.9,0,0,100,0.00,40.00,5,0,0,0.00
2013-9-1,77.0,70.6,68.0,-99.9,-99.9,-99.9,0,0,100,0.00,40.00,2,0,0,0.00
2013-9-2,80.0,71.8,62.0,-99.9,-99.9,-99.9,0,0,100,0.00,40.00,11,2,0,0.00
2013-9-3,74.0,63.4,52.0,-99.9,-99.9,-99.9,0,0,100,0.00,40.00,6,1,0,0.00
2013-9-4,81.0,67.2,54.0,-99.9,-99.9,-99.9,0,0,100,0.00,40.00,5,0,0,0.00
2013-9-5,80.0,67.8,59.0,-99.9,-99.9,-99.9,0,0,100,0.00,40.00,6,2,0,0.00
2013-9-6,80.0,66.1,51.0,-99.9,-99.9,-99.9,0,0,100,0.00,40.00,3,0,0,0.00
2013-9-7,87.0,73.0,59.0,-99.9,-99.9,-99.9,0,0,100,0.00,40.00,4,0,0,0.00
2013-9-8,80.0,70.0,65.0,-99.9,-99.9,-99.9,0,0,100,0.00,40.00,9,2,0,0.00
2013-9-9,91.0,75.6,62.0,-99.9,-99.9,-99.9,0,0,100,0.00,40.00,5,1,0,0.00
2013-9-11,95.0,82.8,73.0,-99.9,-99.9,-99.9,0,0,100,0.00,40.00,7,1,0,0.00
2013-9-12,82.0,72.1,62.0,-99.9,-99.9,-99.9,0,0,100,0.00,40.00,7,1,0,0.00
2013-9-13,64.0,56.8,50.0,-99.9,-99.9,-99.9,0,0,100,0.00,40.00,11,2,0,0.00
2013-9-14,69.0,55.0,41.0,-99.9,-99.9,-99.9,0,0,100,0.00,40.00,3,0,0,0.00
2013-9-15,73.0,53.8,47.0,-99.9,-99.9,-99.9,0,0,100,0.00,40.00,6,0,0,0.00
2013-9-16,65.0,58.4,54.0,-99.9,-99.9,-99.9,0,0,100,0.00,40.00,7,2,0,0.00
2013-9-17,72.0,57.7,46.0,-99.9,-99.9,-99.9,0,0,100,0.00,40.00,4,1,0,0.00
2013-9-18,69.0,56.9,56.0,-99.9,-99.9,-99.9,0,0,100,0.00,40.00,1,0,0,0.00
2013-9-19,72.0,68.8,65.0,-99.9,-99.9,-99.9,0,0,100,0.00,40.00,4,0,0,0.00
2013-9-20,78.0,71.5,66.0,-99.9,-99.9,-99.9,0,0,100,0.00,40.00,6,1,0,0.00
2013-9-21,68.0,61.0,52.0,-99.9,-99.9,-99.9,0,0,100,0.00,40.00,10,1,0,0.00
2013-9-24,69.0,56.4,45.0,-99.9,-99.9,-99.9,0,0,100,0.00,40.00,6,1,0,0.00
2013-9-25,72.0,59.8,49.0,-99.9,-99.9,-99.9,0,0,100,0.00,40.00,7,1,0,0.00
2013-9-26,77.0,61.9,50.0,-99.9,-99.9,-99.9,0,0,100,0.00,40.00,4,1,0,0.00
2013-9-27,77.0,62.5,47.0,-99.9,-99.9,-99.9,0,0,100,0.00,40.00,6,1,0,0.00
2013-9-28,81.0,65.5,50.0,-99.9,-99.9,-99.9,0,0,100,0.00,40.00,5,1,0,0.00
2013-9-29,65.0,60.4,56.0,-99.9,-99.9,-99.9,0,0,100,0.00,40.00,3,0,0,0.00
2013-9-30,71.0,60.5,53.0,-99.9,-99.9,-99.9,0,0,100,0.00,40.00,5,0,0,0.00
2013-10-2,78.0,68.8,62.0,-99.9,-99.9,-99.9,0,0,100,0.00,40.00,4,0,0,0.00
2013-10-3,78.0,70.3,64.0,-99.9,-99.9,-99.9,0,0,100,0.00,40.00,7,0,0,0.00
2013-10-4,81.0,73.4,67.0,-99.9,-99.9,-99.9,0,0,100,0.00,40.00,7,0,0,0.00
2013-10-5,78.0,70.1,66.0,-99.9,-99.9,-99.9,0,0,100,0.00,40.00,4,0,0,0.00
2013-10-6,68.0,60.6,49.0,-99.9,-99.9,-99.9,0,0,100,0.00,40.00,4,1,0,0.00
2013-10-7,59.0,50.1,45.0,-99.9,-99.9,-99.9,0,0,100,0.00,40.00,6,1,0,0.00
2013-10-8,70.0,55.8,43.0,-99.9,-99.9,-99.9,0,0,100,0.00,40.00,3,0,0,0.00
2013-10-9,70.0,55.9,43.0,-99.9,-99.9,-99.9,0,0,100,0.00,40.00,5,0,0,0.00
2013-10-10,72.0,56.8,45.0,-99.9,-99.9,-99.9,0,0,100,0.00,40.00,4,0,0,0.00
2013-10-18,63.0,48.7,41.0,-99.9,-99.9,-99.9,0,0,100,0.00,40.00,4,1,0,0.00
2013-10-19,53.0,44.8,41.0,-99.9,-99.9,-99.9,0,0,100,0.00,40.00,6,0,0,0.00
2013-10-20,63.0,51.0,41.0,-99.9,-99.9,-99.9,0,0,100,0.00,40.00,8,2,0,0.00
2013-10-21,55.0,49.3,39.0,-99.9,-99.9,-99.9,0,0,100,0.00,40.00,6,1,0,0.00
2013-10-22,48.0,37.4,31.0,-99.9,-99.9,-99.9,0,0,100,0.00,40.00,5,1,0,0.00
2013-10-23,43.0,38.2,35.0,-99.9,-99.9,-99.9,0,0,100,0.00,40.00,7,1,0,0.00
2013-10-24,45.0,37.5,32.0,-99.9,-99.9,-99.9,0,0,100,0.00,40.00,4,1,0,0.00
2013-10-25,48.0,40.7,30.0,-99.9,-99.9,-99.9,0,0,100,0.00,40.00,5,1,0,0.00
2013-10-26,55.0,43.5,37.0,-99.9,-99.9,-99.9,0,0,100,0.00,40.00,18,2,0,0.00
2013-10-27,54.0,42.1,33.0,-99.9,-99.9,-99.9,0,0,100,0.00,40.00,4,0,0,0.00
2013-10-28,58.0,42.9,31.0,-99.9,-99.9,-99.9,0,0,100,0.00,40.00,3,0,0,0.00
2013-10-29,55.0,45.0,35.0,-99.9,-99.9,-99.9,0,0,100,0.00,40.00,8,1,0,0.00
2013-10-30,63.0,53.1,43.0,-99.9,-99.9,-99.9,0,0,100,0.00,40.00,3,0,0,0.00
2013-12-5,58.0,37.4,27.0,-99.9,-99.9,-99.9,0,0,100,0.00,40.00,11,4,0,0.00
2013-12-6,29.0,27.1,24.0,-99.9,-99.9,-99.9,0,0,100,0.00,40.00,8,3,0,0.00
2013-12-7,24.0,19.5,16.0,-99.9,-99.9,-99.9,0,0,100,0.00,40.00,7,2,0,0.00
2013-12-8,27.0,22.0,17.0,-99.9,-99.9,-99.9,0,0,100,0.00,40.00,17,4,0,0.00
2013-12-9,29.0,23.9,17.0,-99.9,-99.9,-99.9,0,0,100,0.00,40.00,11,5,0,0.00
2013-12-10,26.0,17.2,7.0,-99.9,-99.9,-99.9,0,0,100,0.00,40.00,12,4,0,0.00
2013-12-11,24.0,18.1,9.0,-99.9,-99.9,-99.9,0,0,100,0.00,40.00,7,2,0,0.00
2013-12-21,53.0,37.5,35.0,-99.9,-99.9,-99.9,0,0,100,0.00,40.00,13,3,0,0.00
2013-12-22,38.0,35.3,31.0,-99.9,-99.9,-99.9,0,0,100,0.00,40.00,13,4,0,0.00
2013-12-23,31.0,24.6,12.0,-99.9,-99.9,-99.9,0,0,100,0.00,40.00,10,4,0,0.00
2013-12-24,19.0,11.1,3.0,-99.9,-99.9,-99.9,0,0,100,0.00,40.00,9,3,0,0.00
2013-12-25,27.0,22.9,17.0,-99.9,-99.9,-99.9,0,0,100,0.00,40.00,9,3,0,0.00
2013-12-26,33.0,27.4,19.0,-99.9,-99.9,-99.9,0,0,100,0.00,40.00,9,4,0,0.00
2013-12-27,44.0,36.7,29.0,-99.9,-99.9,-99.9,0,0,100,0.00,40.00,8,3,0,0.00
2013-12-28,50.0,40.2,35.0,-99.9,-99.9,-99.9,0,0,100,0.00,40.00,8,4,0,0.00